Location: *
(37.5724°S, 58.0067°E)
Time: 06:29:29
(UTC+00:00)

Genesis I - Pass Details

Date: 20 January 2021
Orbit: 489 x 532 km, 64.5° (Epoch: 02 March)

Event Time Altitude Azimuth Distance (km) Brightness Sun altitude
Exits shadow 22:47:27 36° 230° (SW) 860 4.2 -22.8°
Drops below altitude 10° 22:51:02 10° 166° (SSE) 1,778 6.8 -22.3°
Sets 22:53:21 0° 157° (SSE) 2,665 8.1 -22.0°
